DW7628 Weather Reports


Display with metric or nautical units.
time (UTC)temp
F
wind
direction
speed
MPH
gust
MPH
rain 1hr
in
rain 24hr
in
rain mn
in
humidity
%
barometer
mb
20260901095308 89 126 0.0 0.0 0.00 0.00 0.00 35 1013.6
20260901094804 89 133 0.0 0.0 0.00 0.00 0.00 35 1013.6
20260901094304 88 223 0.0 0.0 0.00 0.00 0.00 36 1013.7
20260901093804 88 85 0.0 0.0 0.00 0.00 0.00 36 1013.8
20260901093304 88 11 0.0 0.0 0.00 0.00 0.00 37 1013.8
20260901092805 88 213 0.0 0.0 0.00 0.00 0.00 38 1013.6
20260901091805 86 30 0.0 0.0 0.00 0.00 0.00 40 1013.7
20260901091306 86 12 0.0 0.0 0.00 0.00 0.00 41 1013.6
20260901090805 86 25 0.0 0.0 0.00 0.00 0.00 41 1013.6
20260901090305 87 15 0.0 0.0 0.00 0.00 0.00 44 1013.6
20260901085805 86 57 0.0 0.0 0.00 0.00 0.00 45 1013.5
20260901085306 86 133 0.0 0.0 0.00 0.00 0.00 46 1013.6
20260901084304 86 129 0.0 0.0 0.00 0.00 0.00 49 1013.6
20260901083805 85 155 0.0 0.0 0.00 0.00 0.00 50 1013.6
20260901083306 84 156 0.0 0.0 0.00 0.00 0.00 51 1013.6
20260901081304 83 23 0.0 0.0 0.00 0.00 0.00 54 1013.4
20260901080805 83 101 0.0 0.0 0.00 0.00 0.00 54 1013.5
20260901074805 82 15 0.0 0.0 0.00 0.00 0.00 56 1013.2
20260901074305 81 54 0.0 0.0 0.00 0.00 0.00 57 1013.1
20260901073304 81 109 0.0 0.0 0.00 0.00 0.00 59 1012.9
20260901071304 81 56 0.0 0.0 0.00 0.00 0.00 61 1013.0
20260901070806 80 80 0.0 0.0 0.00 0.00 0.00 61 1012.9
20260901070304 80 53 0.0 0.0 0.00 0.00 0.00 61 1013.0
20260901065805 80 109 0.0 0.0 0.00 0.00 0.00 59 1012.9
20260901065305 80 13 0.0 0.0 0.00 0.00 0.00 60 1012.8
20260901064804 80 81 0.0 0.0 0.00 0.00 0.00 61 1012.7
20260901064305 79 125 0.0 0.0 0.00 0.00 0.00 64 1012.6
20260901063804 79 138 0.0 0.0 0.00 0.00 0.00 64 1012.6
20260901063304 79 173 0.0 0.0 0.00 0.00 0.00 64 1012.5
20260901062804 78 104 0.0 0.0 0.00 0.00 0.00 64 1012.5
20260901062309 78 118 0.0 0.0 0.00 0.00 0.00 64 1012.5
20260901061805 78 233 0.0 0.0 0.00 0.00 0.00 63 1012.4
20260901061305 77 169 0.0 0.0 0.00 0.00 0.00 63 1012.5
20260901060804 77 313 0.0 0.0 0.00 0.00 0.00 63 1012.5
20260901055804 75 242 0.0 0.0 0.00 0.00 0.00 66 1012.5
20260901055306 75 275 0.0 0.0 0.00 0.00 0.00 67 1012.4
20260901054805 74 13 0.0 0.0 0.00 0.00 0.00 70 1012.3
20260901054304 73 235 0.0 0.0 0.00 0.00 0.00 71 1012.2
20260901053805 73 62 0.0 0.0 0.00 0.00 0.00 71 1012.1
20260901053304 73 1 0.0 0.0 0.00 0.00 0.00 72 1012.2
20260901052804 73 116 0.0 0.0 0.00 0.00 0.00 73 1012.1
20260901052307 73 220 0.0 0.0 0.00 0.00 0.00 73 1012.2
20260901051804 73 60 0.0 0.0 0.00 0.00 0.00 73 1012.1
20260901051304 73 55 0.0 0.0 0.00 0.00 0.00 74 1012.1
20260901050304 73 20 0.0 0.0 0.00 0.00 0.00 74 1012.2
20260901045804 72 34 0.0 0.0 0.00 0.00 0.00 74 1012.1
20260901045306 72 16 0.0 0.0 0.00 0.00 0.00 75 1012.0
20260901044804 72 129 0.0 0.0 0.00 0.00 0.00 75 1012.1
20260901044304 72 81 0.0 0.0 0.00 0.00 0.00 75 1012.1
20260901043804 72 35 0.0 0.0 0.00 0.00 0.00 74 1012.0
20260901043304 72 15 0.0 0.0 0.00 0.00 0.00 74 1012.0
20260901042804 72 30 0.0 0.0 0.00 0.00 0.00 76 1011.9
20260901042306 72 28 0.0 0.0 0.00 0.00 0.00 77 1011.9
20260901041304 72 25 0.0 0.0 0.00 0.00 0.00 76 1011.8
20260901040804 72 17 0.0 0.0 0.00 0.00 0.00 76 1011.7
20260901040304 72 17 0.0 0.0 0.00 0.00 0.00 76 1011.8
20260901035804 72 46 0.0 0.0 0.00 0.00 0.00 76 1011.8
20260901035305 72 39 0.0 0.0 0.00 0.00 0.00 75 1011.8
20260901034804 72 36 0.0 0.0 0.00 0.00 0.00 75 1011.8
20260901034304 72 44 0.0 0.0 0.00 0.00 0.00 75 1011.7
20260901033804 72 35 0.0 0.0 0.00 0.00 0.00 75 1011.8
20260901033304 72 124 0.0 0.0 0.00 0.00 0.00 75 1011.7
20260901032804 72 56 0.0 0.0 0.00 0.00 0.00 74 1011.7
20260901032306 72 8 0.0 0.0 0.00 0.00 0.00 74 1011.8
20260901031805 72 37 0.0 0.0 0.00 0.00 0.00 74 1011.7
20260901031304 72 124 0.0 0.0 0.00 0.00 0.00 74 1011.7
20260901030804 72 129 0.0 0.0 0.00 0.00 0.00 74 1011.6
20260901030304 72 209 0.0 0.0 0.00 0.00 0.00 74 1011.6
20260901025804 72 181 0.0 0.0 0.00 0.00 0.00 73 1011.6
20260901025306 72 111 0.0 0.0 0.00 0.00 0.00 73 1011.6
20260901024804 72 148 0.0 0.0 0.00 0.00 0.00 73 1011.5
20260901024304 72 241 0.0 0.0 0.00 0.00 0.00 72 1011.5
20260901023804 72 109 0.0 0.0 0.00 0.00 0.00 72 1011.5
20260901023304 72 10 0.0 0.0 0.00 0.00 0.00 71 1011.6
20260901022306 72 14 0.0 0.0 0.00 0.00 0.00 71 1011.8
20260901021804 73 22 0.0 0.0 0.00 0.00 0.00 70 1011.9
20260901021304 72 44 0.0 0.0 0.00 0.00 0.00 71 1011.8
20260901020804 72 136 0.0 0.0 0.00 0.00 0.00 70 1011.7
20260901020304 72 354 0.0 0.0 0.00 0.00 0.00 72 1011.8
20260901015804 72 49 0.0 0.0 0.00 0.00 0.00 71 1011.8
20260901015305 73 28 0.0 0.0 0.00 0.00 0.00 71 1011.7
20260901014803 73 9 0.0 0.0 0.00 0.00 0.00 72 1011.8
20260901014304 73 51 0.0 0.0 0.00 0.00 0.00 72 1011.8
20260901013804 73 41 0.0 0.0 0.00 0.00 0.00 72 1011.6
20260901013304 72 19 0.0 0.0 0.00 0.00 0.00 74 1011.6
20260901012804 72 35 0.0 0.0 0.00 0.00 0.00 76 1011.8
20260901012306 72 28 0.0 0.0 0.00 0.00 0.00 77 1011.9
20260901011304 72 24 0.0 0.0 0.00 0.00 0.00 78 1012.1
20260901010804 72 357 0.0 0.0 0.00 0.00 0.00 78 1012.2
20260901010304 72 24 0.0 0.0 0.00 0.00 0.00 78 1012.2
20260901005806 72 22 0.0 0.0 0.00 0.00 0.00 78 1012.2
20260901005307 72 19 0.0 0.0 0.00 0.00 0.00 78 1012.1
20260901004806 72 39 0.0 0.0 0.00 0.00 0.00 77 1012.2
20260901003306 72 32 0.0 0.0 0.00 0.00 0.00 77 1012.2
20260901002807 72 26 0.0 0.0 0.00 0.00 0.00 77 1012.3
20260901002306 72 68 0.0 0.0 0.00 0.00 0.00 77 1012.4
20260901001806 72 287 0.0 0.0 0.00 0.00 0.00 76 1012.4
20260901001306 73 27 0.0 0.0 0.00 0.00 0.00 76 1012.4
20260901000806 73 66 0.0 0.0 0.00 0.00 0.00 75 1012.4
20260901000306 73 29 0.0 0.0 0.00 0.00 0.00 75 1012.3
20260831235806 73 31 0.0 0.0 0.00 0.00 0.00 75 1012.3
20260831234806 73 8 0.0 0.0 0.00 0.00 0.00 74 1012.4
20260831234306 73 37 0.0 0.0 0.00 0.00 0.00 75 1012.5
20260831233806 73 47 0.0 0.0 0.00 0.00 0.00 75 1012.5
20260831232807 73 9 0.0 0.0 0.00 0.00 0.00 74 1012.7
20260831232306 74 22 0.0 0.0 0.00 0.00 0.00 74 1012.6
20260831231806 74 12 0.0 0.0 0.00 0.00 0.00 73 1012.7
20260831230806 74 1 0.0 0.0 0.00 0.00 0.00 70 1012.7
20260831230306 74 10 0.0 0.0 0.00 0.00 0.00 70 1012.7
20260831225810 74 27 0.0 0.0 0.00 0.00 0.00 69 1012.8
20260831225307 75 142 0.0 0.0 0.00 0.00 0.00 68 1012.9
20260831224807 75 19 0.0 0.0 0.00 0.00 0.00 67 1012.9
20260831224306 75 58 0.0 0.0 0.00 0.00 0.00 67 1012.9
20260831223805 74 341 0.0 0.0 0.00 0.00 0.00 66 1012.9
20260831223306 74 225 0.0 0.0 0.00 0.00 0.00 67 1012.9
20260831222806 74 225 0.0 0.0 0.00 0.00 0.00 68 1012.9
20260831222307 74 220 0.0 0.0 0.00 0.00 0.00 68 1012.9
20260831221806 75 118 0.0 0.0 0.00 0.00 0.00 68 1012.5
20260831221306 75 65 0.0 0.0 0.00 0.00 0.00 68 1012.3
20260831220306 75 58 0.0 0.0 0.00 0.00 0.00 67 1012.2
20260831215807 75 70 0.0 0.0 0.00 0.00 0.00 67 1012.3
20260831215306 75 22 0.0 0.0 0.00 0.00 0.00 67 1012.3
20260831214307 75 210 0.0 0.0 0.00 0.00 0.00 69 1012.2
20260831212806 76 171 0.0 0.0 0.00 0.00 0.00 69 1012.2
20260831212306 76 173 0.0 0.0 0.00 0.00 0.00 69 1012.2
20260831211806 76 186 0.0 0.0 0.00 0.00 0.00 68 1012.2
20260831211305 76 191 0.0 0.0 0.00 0.00 0.00 68 1012.2
20260831210806 76 220 0.0 0.0 0.00 0.00 0.00 67 1012.2
20260831210306 76 221 0.0 0.0 0.00 0.00 0.00 68 1012.3
20260831205307 77 217 0.0 0.0 0.00 0.00 0.00 67 1012.2
20260831204805 77 228 0.0 0.0 0.00 0.00 0.00 66 1012.1
20260831203805 77 201 0.0 0.0 0.00 0.00 0.00 65 1012.2
20260831203306 77 225 0.0 0.0 0.00 0.00 0.00 66 1012.1
20260831202806 78 359 0.0 0.0 0.00 0.00 0.00 66 1012.1
20260831202306 78 34 0.0 0.0 0.00 0.00 0.00 66 1012.1
20260831201806 78 155 0.0 0.0 0.00 0.00 0.00 65 1012.1
20260831201306 78 215 0.0 0.0 0.00 0.00 0.00 65 1012.0
20260831200805 78 109 0.0 0.0 0.00 0.00 0.00 65 1012.0
20260831200306 78 13 0.0 0.0 0.00 0.00 0.00 65 1012.0
20260831195806 78 204 0.0 0.0 0.00 0.00 0.00 65 1012.1
20260831195306 79 239 0.0 0.0 0.00 0.00 0.00 66 1012.1
20260831194806 79 118 0.0 0.0 0.00 0.00 0.00 65 1012.0
20260831194306 79 215 0.0 0.0 0.00 0.00 0.00 65 1011.9
20260831193805 79 8 0.0 0.0 0.00 0.00 0.00 63 1012.0
20260831192805 79 81 0.0 0.0 0.00 0.00 0.00 63 1011.7
20260831192307 79 76 0.0 0.0 0.00 0.00 0.00 64 1011.7
20260831191805 79 3 0.0 0.0 0.00 0.00 0.00 65 1011.7
20260831191306 80 22 0.0 0.0 0.00 0.00 0.00 64 1011.7
20260831190806 80 16 0.0 0.0 0.00 0.00 0.00 62 1011.6
20260831190306 80 94 0.0 0.0 0.00 0.00 0.00 62 1011.4
20260831185807 80 14 0.0 0.0 0.00 0.00 0.00 61 1011.4
20260831185306 81 236 0.0 0.0 0.00 0.00 0.00 61 1011.3
20260831184806 81 102 0.0 0.0 0.00 0.00 0.00 59 1011.2
20260831184305 81 175 0.0 0.0 0.00 0.00 0.00 57 1011.1
20260831183806 82 217 0.0 0.0 0.00 0.00 0.00 59 1011.0
20260831183305 82 233 0.0 0.0 0.00 0.00 0.00 58 1011.0
20260831182806 82 133 0.0 0.0 0.00 0.00 0.00 57 1010.9
20260831182306 82 198 0.0 0.0 0.00 0.00 0.00 56 1011.0
20260831181307 83 24 0.0 0.0 0.00 0.00 0.00 56 1010.9
20260831180805 83 10 0.0 0.0 0.00 0.00 0.00 54 1010.9
20260831175805 84 208 0.0 0.0 0.00 0.00 0.00 56 1010.8
20260831175306 84 193 0.0 0.0 0.00 0.00 0.00 55 1010.8
20260831174805 85 129 0.0 0.0 0.00 0.00 0.00 54 1010.8
20260831174305 85 44 0.0 0.0 0.00 0.00 0.00 52 1010.7
20260831173805 86 9 0.0 0.0 0.00 0.00 0.00 51 1010.6
20260831173305 86 83 0.0 0.0 0.00 0.00 0.00 49 1010.8
20260831172806 87 24 0.0 0.0 0.00 0.00 0.00 48 1010.7
20260831171805 87 34 0.0 0.0 0.00 0.00 0.00 46 1010.7
20260831171305 88 13 0.0 0.0 0.00 0.00 0.00 45 1010.7
20260831170806 88 126 0.0 0.0 0.00 0.00 0.00 45 1010.7
20260831165306 89 311 0.0 0.0 0.00 0.00 0.00 44 1010.8
20260831164806 89 46 0.0 0.0 0.00 0.00 0.00 44 1010.7
20260831163306 90 279 0.0 0.0 0.00 0.00 0.00 44 1010.6
20260831162806 90 39 0.0 0.0 0.00 0.00 0.00 44 1010.7
20260831162306 90 50 0.0 0.0 0.00 0.00 0.00 44 1010.6
20260831161807 91 48 0.0 0.0 0.00 0.00 0.00 43 1010.6
20260831161305 91 85 0.0 0.0 0.00 0.00 0.00 42 1010.6
20260831160305 92 45 0.0 0.0 0.00 0.00 0.00 42 1010.5
20260831155806 92 89 0.0 0.0 0.00 0.00 0.00 42 1010.4
20260831155306 92 126 0.0 0.0 0.00 0.00 0.00 41 1010.4
20260831154805 92 42 0.0 0.0 0.00 0.00 0.00 41 1010.4
20260831153806 93 42 0.0 0.0 0.00 0.00 0.00 40 1010.4
20260831152806 94 23 0.0 0.0 0.00 0.00 0.00 39 1010.3
20260831152306 94 41 0.0 0.0 0.00 0.00 0.00 38 1010.3
20260831151806 95 47 0.0 0.0 0.00 0.00 0.00 38 1010.3
20260831151305 95 111 0.0 0.0 0.00 0.00 0.00 38 1010.3
20260831150305 95 40 0.0 0.0 0.00 0.00 0.00 37 1010.2
20260831145805 96 21 0.0 0.0 0.00 0.00 0.00 36 1010.3
20260831145306 96 84 0.0 0.0 0.00 0.00 0.00 36 1010.3
20260831144805 97 149 0.0 0.0 0.00 0.00 0.00 35 1010.2
20260831144306 98 32 0.0 0.0 0.00 0.00 0.00 34 1010.2
20260831143805 98 31 0.0 0.0 0.00 0.00 0.00 34 1010.2
20260831143306 98 22 0.0 0.0 0.00 0.00 0.00 34 1010.2
20260831142805 98 22 0.0 0.0 0.00 0.00 0.00 34 1010.3
20260831142306 98 30 0.0 0.0 0.00 0.00 0.00 33 1010.3
20260831141305 99 36 0.0 0.0 0.00 0.00 0.00 32 1010.3
20260831140305 99 28 0.0 0.0 0.00 0.00 0.00 31 1010.3
20260831135805 99 134 0.0 0.0 0.00 0.00 0.00 30 1010.3
20260831135306 100 160 0.0 0.0 0.00 0.00 0.00 29 1010.4
20260831134805 100 245 0.0 0.0 0.00 0.00 0.00 29 1010.4
20260831134305 100 196 0.0 0.0 0.00 0.00 0.00 29 1010.5
20260831133805 100 281 0.0 0.0 0.00 0.00 0.00 28 1010.4
20260831133305 100 74 0.0 0.0 0.00 0.00 0.00 29 1010.4
20260831132805 100 187 0.0 0.0 0.00 0.00 0.00 28 1010.5
20260831132307 100 158 0.0 0.0 0.00 0.00 0.00 28 1010.5
20260831131805 100 224 0.0 0.0 0.00 0.00 0.00 28 1010.5
20260831131305 100 172 0.0 0.0 0.00 0.00 0.00 27 1010.5
20260831130805 100 303 0.0 0.0 0.00 0.00 0.00 28 1010.6
20260831125806 100 161 0.0 0.0 0.00 0.00 0.00 28 1010.6
20260831124805 99 27 0.0 0.0 0.00 0.00 0.00 27 1010.7
20260831124305 99 195 0.0 0.0 0.00 0.00 0.00 27 1010.7
20260831123806 99 260 0.0 0.0 0.00 0.00 0.00 28 1010.7
20260831123305 98 116 0.0 0.0 0.00 0.00 0.00 28 1010.8
20260831122805 99 281 0.0 0.0 0.00 0.00 0.00 28 1011.0
20260831122306 99 277 0.0 0.0 0.00 0.00 0.00 28 1011.0
20260831121805 99 329 0.0 0.0 0.00 0.00 0.00 28 1010.9
20260831121304 99 217 0.0 0.0 0.00 0.00 0.00 29 1011.1
20260831120805 98 171 0.0 0.0 0.00 0.00 0.00 29 1011.1
20260831120305 99 273 0.0 0.0 0.00 0.00 0.00 29 1011.2
20260831115805 99 168 0.0 0.0 0.00 0.00 0.00 28 1011.2
20260831114805 98 187 0.0 0.0 0.00 0.00 0.00 29 1011.3
20260831114304 98 51 0.0 0.0 0.00 0.00 0.00 29 1011.3
20260831113805 97 236 0.0 0.0 0.00 0.00 0.00 29 1011.4
20260831113305 98 25 0.0 0.0 0.00 0.00 0.00 28 1011.5
20260831112805 97 197 0.0 0.0 0.00 0.00 0.00 29 1011.5
20260831112307 97 12 0.0 0.0 0.00 0.00 0.00 30 1011.6
20260831111805 97 230 0.0 0.0 0.00 0.00 0.00 30 1011.7
20260831111305 97 289 0.0 0.0 0.00 0.00 0.00 30 1011.8
20260831110805 97 327 0.0 0.0 0.00 0.00 0.00 29 1011.8
20260831110306 97 147 0.0 0.0 0.00 0.00 0.00 30 1011.9
20260831105804 97 126 0.0 0.0 0.00 0.00 0.00 30 1011.9
20260831105306 97 62 0.0 0.0 0.00 0.00 0.00 29 1012.0
20260831104805 97 212 0.0 0.0 0.00 0.00 0.00 29 1012.0
20260831103806 97 267 0.0 0.0 0.00 0.00 0.00 28 1012.2
20260831103305 97 35 0.0 0.0 0.00 0.00 0.00 28 1012.2
20260831102306 97 85 0.0 0.0 0.00 0.00 0.00 28 1012.2
20260831101805 96 4 0.0 0.0 0.00 0.00 0.00 28 1012.2
20260831101305 96 236 0.0 0.0 0.00 0.00 0.00 29 1012.3
20260831100305 95 207 0.0 0.0 0.00 0.00 0.00 30 1012.3